Regional Weather Roundup
Issued by NWS Spokane, WA

Home | Current Version | Previous Version | Text Only | Print | Product List | Glossary On
Versions: 1 2 3 4 5 6 7 8 9 10 11 12 13 14 15 16 17 18 19 20 21 22 23 24 25 26 27 28 29 30 31 32 33 34 35 36 37 38 39 40 41 42 43 44 45 46 47 48 49 50
410
NZUS01 KOTX 171257
RWROTX

Eastern Washington/Northern Idaho Roundup
National Weather Service, Spokane WA
600 AM PDT THU AUG 17 2017

Note: "fair" indicated few or no clouds below 12,000 feet with no
significant weather and/or obstructions to visibility.

...Northeast Washington and Northern Idaho Panhandle...

CITY           SKY/WX    TMP DP  RH WIND       PRES   REMARKS
Spokane Intl   MOCLDY    56  46  69 S7        30.02R
Spokane Downto CLEAR     62  47  57 SW6       30.03R
Deer Park      CLEAR     47  39  74 CALM      30.02R

...Southeast Washington and southern Idaho Panhandle...

CITY           SKY/WX    TMP DP  RH WIND       PRES   REMARKS
Walla Walla    CLEAR     67  52  58 S12       30.04R
Pullman/Moscow CLEAR     60  47  61 W7        30.08R
Lowell           N/A     54  46  74 CALM      30.09R

...Columbia Basin...

CITY           SKY/WX    TMP DP  RH WIND       PRES   REMARKS
Ephrata        PTCLDY    66  40  38 NW14      29.98R
Moses Lake     PTCLDY    62  48  60 SW6       30.00R
Pasco          CLEAR     58  53  84 E3        30.01R
Hermiston      CLEAR     66  55  67 SW8       30.01R
Pendleton      CLEAR     63  49  60 S6        30.05R

...East Slopes Cascades...

CITY           SKY/WX    TMP DP  RH WIND       PRES   REMARKS
The Dalles     CLEAR     68  56  65 W17G24    30.04R
Yakima         CLEAR     62  49  62 CALM      30.03R
Ellensburg     CLEAR     63  50  62 NW17G25   30.04R
Omak           PTCLDY    59  38  45 NW10      30.00R
Sunnyside        N/A     51  49  91 CALM      30.02R

...Southern British Columbia...

CITY           SKY/WX    TMP DP  RH WIND       PRES   REMARKS

...Western Montana...

CITY           SKY/WX    TMP DP  RH WIND       PRES   REMARKS
Missoula       CLEAR     49  40  71 CALM      30.08R

...Neighboring Cities...

CITY           SKY/WX    TMP DP  RH WIND       PRES   REMARKS
Seattle        CLOUDY    59  56  89 S5        30.16R
Portland       MOCLDY    62  55  77 NW8       30.15R
Boise          CLEAR     59  38  45 SE6       30.05R
Great Falls    PTCLDY    58  31  35 S10       29.99S



USA.gov is the U.S. government's official web portal to all federal, state and local government web resources and services.